TimeMDT,TemperatureF,Dew PointF,Humidity,Sea Level PressureIn,VisibilityMPH,Wind Direction,Wind SpeedMPH,Gust SpeedMPH,PrecipitationIn,Events,Conditions,WindDirDegrees,DateUTC
12:53 AM,36.0,19.9,52,30.08,10.0,Calm,Calm,-,N/A,,Clear,0,2012-10-08 06:53:00
1:53 AM,34.0,19.9,56,30.08,10.0,WSW,3.5,-,N/A,,Clear,250,2012-10-08 07:53:00
2:53 AM,33.1,19.0,56,30.08,10.0,Calm,Calm,-,N/A,,Clear,0,2012-10-08 08:53:00
3:53 AM,30.9,19.0,61,30.07,10.0,WSW,3.5,-,N/A,,Clear,250,2012-10-08 09:53:00
4:53 AM,28.9,18.0,64,30.08,10.0,Calm,Calm,-,N/A,,Clear,0,2012-10-08 10:53:00
5:53 AM,28.9,18.0,64,30.08,10.0,West,3.5,-,N/A,,Clear,280,2012-10-08 11:53:00
6:53 AM,28.0,17.1,63,30.08,10.0,West,3.5,-,N/A,,Clear,280,2012-10-08 12:53:00
7:53 AM,27.0,17.1,66,30.10,10.0,Calm,Calm,-,N/A,,Clear,0,2012-10-08 13:53:00
8:53 AM,28.9,19.0,67,30.12,10.0,Calm,Calm,-,N/A,,Clear,0,2012-10-08 14:53:00
9:53 AM,35.1,19.9,54,30.13,10.0,Calm,Calm,-,N/A,,Clear,0,2012-10-08 15:53:00
10:53 AM,44.1,17.1,34,30.11,10.0,Calm,Calm,-,N/A,,Clear,0,2012-10-08 16:53:00
11:53 AM,48.9,19.0,31,30.09,10.0,Calm,Calm,-,N/A,,Clear,0,2012-10-08 17:53:00
12:53 PM,55.0,21.0,27,30.07,10.0,Calm,Calm,-,N/A,,Clear,0,2012-10-08 18:53:00
1:53 PM,60.1,21.0,22,30.04,10.0,Calm,Calm,-,N/A,,Clear,0,2012-10-08 19:53:00
2:53 PM,62.1,19.0,19,30.00,10.0,Calm,Calm,-,N/A,,Clear,0,2012-10-08 20:53:00
3:53 PM,64.9,19.0,17,29.98,10.0,Calm,Calm,-,N/A,,Clear,0,2012-10-08 21:53:00
4:53 PM,66.0,18.0,16,29.96,10.0,Calm,Calm,-,N/A,,Clear,0,2012-10-08 22:53:00
5:53 PM,66.9,19.0,16,29.94,10.0,Calm,Calm,-,N/A,,Clear,0,2012-10-08 23:53:00
6:53 PM,63.0,21.9,21,29.94,10.0,Calm,Calm,-,N/A,,Clear,0,2012-10-09 00:53:00
7:53 PM,50.0,26.1,39,29.95,10.0,Calm,Calm,-,N/A,,Clear,0,2012-10-09 01:53:00
8:53 PM,48.0,24.1,39,29.97,10.0,West,3.5,-,N/A,,Clear,260,2012-10-09 02:53:00
9:53 PM,45.0,21.9,40,29.98,10.0,WSW,4.6,-,N/A,,Clear,240,2012-10-09 03:53:00
10:53 PM,42.1,21.9,45,29.99,10.0,WSW,5.8,-,N/A,,Clear,240,2012-10-09 04:53:00
11:53 PM,39.0,21.9,50,30.00,9.0,West,3.5,-,N/A,,Clear,260,2012-10-09 05:53:00